Camp Point, IL

10:21 PM CST on February 25, 2017 (GMT -0600)
Quincy Regional-Baldwin

Weather History for KUIN - November, 2013

Change the Weather History Date:

Monday, November 11, 2013

  Actual Average Record
Temperature  
Mean Temperature 43 °F 45 °F  
Max Temperature 59 °F 54 °F 79 °F (1949)
Min Temperature 27 °F 36 °F 12 °F (1950)
Degree Days  
Heating Degree Days 22 20  
Month to date heating degree days 206 197  
Since 1 July heating degree days 579 621  
Cooling Degree Days 0 0  
Month to date cooling degree days 0 0  
Year to date cooling degree days 1242 1093  
Moisture  
Dew Point 32 °F    
Average Humidity 67    
Maximum Humidity 85    
Minimum Humidity 49    
Precipitation  
Precipitation T in 0.10 in 1.10 in (1982)
Month to date precipitation 0.85 1.12  
Year to date precipitation 33.59 33.18  
Sea Level Pressure  
Sea Level Pressure 30.30 in    
Wind  
Wind Speed 13 mph (NNW)    
Max Wind Speed 24 mph    
Max Gust Speed 30 mph    
Visibility 8 miles    
Events Rain , Snow    
T = Trace of Precipitation, MM = Missing Value Source: NWS Daily Summary

Daily Weather History Graph

Daily Weather History Graph

Search for Another Location

Airport or City:

Trip Planner

Search our weather history database for the weather conditions in past years. The results will help you decide how hot, cold, wet, or windy it might be!

Date:

Astronomy

Nov. 11, 2013 Rise Set
Actual Time 6:45 AM CST 4:51 PM CST
Civil Twilight 6:16 AM CST 5:20 PM CST
Nautical Twilight 5:44 AM CST 5:52 PM CST
Astronomical Twilight 5:12 AM CST 6:24 PM CST
Moon 1:32 PM CST (11/11) 12:31 AM CST (11/11)
Length of Visible Light 11h 03m
Length of Day
10h 06m
Waxing Gibbous, 66% of the Moon is Illuminated
Nov 11
Waxing Gibbous
Nov 17
Full
Nov 25
Last Quarter
Dec 2
New
Dec 9
First Quarter

Hourly Weather History & Observations

Time (CST) Temp. Windchill Dew Point Humidity Pressure Visibility Wind Dir Wind Speed Gust Speed Precip Events Conditions
12:54 AM 45.0 °F 41.8 °F 30.0 °F 56% 30.23 in 10.0 mi South 5.8 mph - N/A   Overcast
1:54 AM 45.0 °F 40.1 °F 30.0 °F 56% 30.22 in 10.0 mi South 9.2 mph - N/A   Overcast
2:54 AM 45.0 °F 40.1 °F 30.0 °F 56% 30.19 in 10.0 mi SSW 9.2 mph - N/A   Overcast
3:54 AM 45.0 °F 40.1 °F 28.9 °F 53% 30.17 in 10.0 mi SSW 9.2 mph - N/A   Overcast
4:54 AM 45.0 °F 40.1 °F 30.0 °F 56% 30.18 in 10.0 mi SSW 9.2 mph - N/A   Overcast
5:54 AM 45.0 °F 40.1 °F 30.9 °F 58% 30.16 in 10.0 mi SSW 9.2 mph - N/A   Overcast
6:54 AM 45.0 °F 40.6 °F 32.0 °F 60% 30.16 in 10.0 mi SSW 8.1 mph - N/A   Overcast
7:54 AM 46.9 °F - 34.0 °F 61% 30.17 in 10.0 mi SSW 8.1 mph - N/A   Clear
8:54 AM 53.1 °F - 37.0 °F 55% 30.17 in 10.0 mi SW 10.4 mph - N/A   Scattered Clouds
9:54 AM 57.9 °F - 42.1 °F 56% 30.15 in 10.0 mi WSW 10.4 mph - N/A   Clear
10:35 AM 57.2 °F - 42.8 °F 59% 30.16 in 8.0 mi West 10.4 mph 18.4 mph N/A   Overcast
10:54 AM 57.0 °F - 43.0 °F 59% 30.17 in 10.0 mi West 11.5 mph - N/A   Overcast
11:23 AM 55.4 °F - 42.8 °F 63% 30.16 in 2.5 mi NW 18.4 mph - N/A   Haze
11:30 AM 55.4 °F - 42.8 °F 63% 30.16 in 9.0 mi NW 12.7 mph - N/A   Overcast
11:54 AM 54.0 °F - 42.1 °F 64% 30.17 in 10.0 mi NNW 15.0 mph - N/A   Overcast
12:54 PM 52.0 °F - 39.9 °F 63% 30.17 in 10.0 mi NNW 13.8 mph - 0.00 in Rain Light Rain
1:54 PM 46.0 °F 38.8 °F 36.0 °F 68% 30.21 in 10.0 mi North 18.4 mph - 0.00 in Rain Light Rain
2:54 PM 43.0 °F 35.1 °F 36.0 °F 76% 30.24 in 8.0 mi North 17.3 mph - 0.00 in Rain Light Rain
3:24 PM 41.0 °F 33.5 °F 35.6 °F 81% 30.25 in 6.0 mi North 13.8 mph 24.2 mph 0.00 in Rain Light Rain
3:54 PM 39.9 °F 31.1 °F 36.0 °F 86% 30.29 in 5.0 mi North 17.3 mph - 0.00 in Rain Light Rain
4:27 PM 37.4 °F 27.5 °F 35.6 °F 93% 30.30 in 4.0 mi North 18.4 mph 25.3 mph 0.00 in Rain Light Rain
4:34 PM 37.4 °F 28.2 °F 35.6 °F 93% 30.30 in 4.0 mi North 16.1 mph - 0.00 in Rain Light Rain
4:54 PM 37.9 °F 27.9 °F 34.0 °F 86% 30.32 in 9.0 mi North 19.6 mph 25.3 mph 0.00 in Rain Light Rain
5:14 PM 37.4 °F 27.5 °F 33.8 °F 87% 30.33 in 10.0 mi North 18.4 mph - 0.00 in   Overcast
5:54 PM 35.1 °F 24.8 °F 30.9 °F 85% 30.38 in 10.0 mi North 17.3 mph 23.0 mph 0.00 in   Overcast
6:21 PM 33.8 °F 22.8 °F 28.4 °F 81% 30.39 in 7.0 mi North 18.4 mph - 0.00 in Rain Light Freezing Rain
6:54 PM 30.9 °F 19.4 °F 26.1 °F 82% 30.43 in 9.0 mi North 17.3 mph - 0.00 in Rain Light Freezing Rain
7:04 PM 30.2 °F 18.5 °F 26.6 °F 86% 30.42 in 10.0 mi North 17.3 mph 27.6 mph 0.00 in   Overcast
7:54 PM 28.9 °F 16.9 °F 25.0 °F 85% 30.47 in 2.0 mi North 17.3 mph 23.0 mph 0.00 in Snow Light Snow
8:03 PM 28.4 °F 16.6 °F 24.8 °F 86% 30.46 in 1.8 mi North 16.1 mph 24.2 mph 0.00 in Snow Light Snow
8:09 PM 28.4 °F 17.0 °F 24.8 °F 86% 30.46 in 2.0 mi North 15.0 mph - 0.00 in Snow Light Snow
8:18 PM 28.4 °F 17.5 °F 24.8 °F 86% 30.46 in 2.5 mi North 13.8 mph - 0.00 in Snow Light Snow
8:30 PM 28.4 °F 16.6 °F 24.8 °F 86% 30.46 in 4.0 mi North 16.1 mph - 0.00 in Snow Light Snow
8:44 PM 28.4 °F 16.6 °F 24.8 °F 86% 30.47 in 10.0 mi North 16.1 mph - 0.00 in   Overcast
8:54 PM 28.9 °F 18.6 °F 24.1 °F 82% 30.49 in 10.0 mi NNW 12.7 mph 23.0 mph 0.00 in   Overcast
9:54 PM 28.9 °F 17.7 °F 23.0 °F 78% 30.52 in 10.0 mi North 15.0 mph - N/A   Overcast
10:54 PM 28.0 °F 15.7 °F 21.0 °F 75% 30.56 in 10.0 mi North 17.3 mph 25.3 mph N/A   Overcast
11:54 PM 27.0 °F 14.7 °F 19.9 °F 75% 30.59 in 10.0 mi North 16.1 mph - N/A   Overcast